TimeEST,TemperatureF,Dew PointF,Humidity,Sea Level PressureIn,VisibilityMPH,Wind Direction,Wind SpeedMPH,Gust SpeedMPH,PrecipitationIn,Events,Conditions,WindDirDegrees,DateUTC
12:15 AM,36.0,29.5,77,30.13,10.0,West,5.8,-,N/A,,Clear,270,2013-12-16 05:15:00
12:35 AM,36.5,29.3,75,30.13,10.0,West,4.6,-,N/A,,Clear,270,2013-12-16 05:35:00
12:55 AM,36.5,29.3,75,30.13,10.0,West,4.6,-,N/A,,Clear,280,2013-12-16 05:55:00
1:15 AM,36.7,29.3,75,30.12,10.0,WSW,3.5,-,N/A,,Clear,250,2013-12-16 06:15:00
1:35 AM,34.3,29.5,82,30.12,10.0,Calm,Calm,-,N/A,,Clear,0,2013-12-16 06:35:00
5:15 AM,36.1,29.3,76,30.14,10.0,West,4.6,-,N/A,,Clear,280,2013-12-16 10:15:00
5:35 AM,34.9,28.9,79,30.14,10.0,West,4.6,-,N/A,,Clear,270,2013-12-16 10:35:00
5:55 AM,31.6,28.9,90,30.14,10.0,Calm,Calm,-,N/A,,Clear,0,2013-12-16 10:55:00
6:15 AM,31.6,29.1,90,30.14,10.0,Calm,Calm,-,N/A,,Clear,0,2013-12-16 11:15:00
6:35 AM,30.9,29.3,94,30.15,10.0,WSW,4.6,-,N/A,,Clear,240,2013-12-16 11:35:00
6:55 AM,34.2,30.2,85,30.15,10.0,WSW,6.9,-,N/A,,Clear,250,2013-12-16 11:55:00
7:15 AM,34.0,29.8,85,30.15,10.0,WSW,5.8,-,N/A,,Clear,240,2013-12-16 12:15:00
7:35 AM,32.0,29.5,90,30.16,10.0,West,3.5,-,N/A,,Clear,260,2013-12-16 12:35:00
7:55 AM,32.4,29.5,89,30.17,10.0,WSW,5.8,-,N/A,,Clear,250,2013-12-16 12:55:00
8:15 AM,33.6,30.0,87,30.17,10.0,WSW,6.9,-,N/A,,Clear,240,2013-12-16 13:15:00
8:35 AM,35.6,31.5,85,30.17,10.0,WSW,5.8,-,N/A,,Clear,250,2013-12-16 13:35:00
8:55 AM,39.4,32.0,75,30.18,10.0,SW,6.9,-,N/A,,Clear,230,2013-12-16 13:55:00
9:15 AM,42.1,32.7,69,30.18,10.0,WSW,5.8,-,N/A,,Clear,240,2013-12-16 14:15:00
9:35 AM,45.5,33.4,63,30.19,10.0,WSW,4.6,-,N/A,,Clear,240,2013-12-16 14:35:00
9:55 AM,49.8,32.7,52,30.19,10.0,WSW,3.5,-,N/A,,Clear,250,2013-12-16 14:55:00
10:15 AM,51.8,31.8,47,30.19,10.0,WSW,4.6,-,N/A,,Clear,240,2013-12-16 15:15:00
10:35 AM,52.0,32.0,47,30.19,10.0,SSW,3.5,-,N/A,,Clear,210,2013-12-16 15:35:00
10:55 AM,53.1,30.9,43,30.19,10.0,SSW,4.6,-,N/A,,Clear,210,2013-12-16 15:55:00
11:15 AM,54.1,32.0,43,30.18,10.0,SW,4.6,-,N/A,,Clear,220,2013-12-16 16:15:00
11:35 AM,55.9,32.0,40,30.18,10.0,WSW,8.1,-,N/A,,Clear,250,2013-12-16 16:35:00
11:55 AM,57.6,28.8,33,30.17,10.0,West,8.1,-,N/A,,Clear,270,2013-12-16 16:55:00
12:15 PM,58.8,29.1,32,30.16,10.0,West,6.9,-,N/A,,Clear,280,2013-12-16 17:15:00
12:35 PM,59.7,27.1,29,30.15,10.0,West,5.8,-,N/A,,Clear,280,2013-12-16 17:35:00
12:55 PM,61.0,25.5,26,30.14,10.0,West,6.9,-,N/A,,Clear,270,2013-12-16 17:55:00
1:15 PM,61.3,23.5,24,30.13,10.0,West,12.7,18.4,N/A,,Clear,270,2013-12-16 18:15:00
1:35 PM,61.2,24.1,24,30.12,10.0,West,13.8,19.6,N/A,,Clear,280,2013-12-16 18:35:00
1:55 PM,61.5,25.5,25,30.12,10.0,West,9.2,16.1,N/A,,Clear,280,2013-12-16 18:55:00
2:15 PM,61.9,25.7,25,30.12,10.0,West,8.1,-,N/A,,Clear,280,2013-12-16 19:15:00
2:35 PM,62.1,25.0,24,30.11,10.0,West,6.9,-,N/A,,Clear,270,2013-12-16 19:35:00
2:55 PM,62.2,25.5,25,30.11,10.0,WNW,5.8,-,N/A,,Clear,300,2013-12-16 19:55:00
3:15 PM,62.4,26.2,25,30.12,10.0,West,5.8,-,N/A,,Clear,260,2013-12-16 20:15:00
3:35 PM,63.0,27.3,26,30.13,10.0,West,10.4,-,N/A,,Clear,270,2013-12-16 20:35:00
3:55 PM,62.4,26.6,26,30.13,10.0,WSW,9.2,-,N/A,,Clear,250,2013-12-16 20:55:00
4:15 PM,61.5,26.2,26,30.13,10.0,WSW,6.9,-,N/A,,Clear,250,2013-12-16 21:15:00
4:35 PM,60.4,25.9,27,30.13,10.0,WSW,8.1,-,N/A,,Clear,250,2013-12-16 21:35:00
4:55 PM,59.0,25.9,28,30.13,10.0,WSW,9.2,-,N/A,,Clear,240,2013-12-16 21:55:00
5:15 PM,57.4,25.5,29,30.14,10.0,West,6.9,-,N/A,,Clear,260,2013-12-16 22:15:00
5:35 PM,54.7,27.3,35,30.14,10.0,WSW,6.9,-,N/A,,Clear,240,2013-12-16 22:35:00
5:55 PM,54.0,27.7,36,30.14,10.0,WSW,9.2,-,N/A,,Clear,240,2013-12-16 22:55:00
6:15 PM,52.0,29.1,41,30.15,10.0,SW,9.2,-,N/A,,Clear,230,2013-12-16 23:15:00
6:35 PM,52.0,29.3,42,30.16,10.0,WSW,8.1,-,N/A,,Clear,250,2013-12-16 23:35:00
6:55 PM,51.3,30.0,44,30.16,10.0,WSW,8.1,-,N/A,,Clear,250,2013-12-16 23:55:00
7:15 PM,50.4,30.2,46,30.17,10.0,WSW,6.9,-,N/A,,Clear,250,2013-12-17 00:15:00
7:35 PM,50.0,31.1,48,30.18,10.0,WSW,10.4,-,N/A,,Clear,250,2013-12-17 00:35:00
7:55 PM,48.7,31.8,52,30.17,10.0,WSW,8.1,-,N/A,,Clear,250,2013-12-17 00:55:00
8:15 PM,48.7,31.6,52,30.18,10.0,WSW,9.2,-,N/A,,Clear,250,2013-12-17 01:15:00
8:35 PM,48.4,31.8,53,30.17,10.0,WSW,10.4,-,N/A,,Clear,250,2013-12-17 01:35:00
8:55 PM,47.8,31.8,54,30.17,10.0,West,10.4,-,N/A,,Clear,260,2013-12-17 01:55:00
9:15 PM,48.0,31.6,53,30.17,10.0,West,11.5,17.3,N/A,,Clear,260,2013-12-17 02:15:00
9:35 PM,48.2,31.6,53,30.17,10.0,West,9.2,16.1,N/A,,Clear,260,2013-12-17 02:35:00
9:55 PM,48.4,31.3,52,30.17,10.0,West,11.5,-,N/A,,Clear,260,2013-12-17 02:55:00
10:15 PM,48.7,31.1,51,30.17,10.0,West,11.5,-,N/A,,Clear,260,2013-12-17 03:15:00
10:35 PM,48.7,31.1,51,30.18,10.0,West,8.1,-,N/A,,Clear,260,2013-12-17 03:35:00
10:55 PM,48.7,30.9,50,30.18,10.0,West,9.2,-,N/A,,Clear,260,2013-12-17 03:55:00
11:15 PM,48.6,30.9,51,30.17,10.0,West,6.9,-,N/A,,Clear,260,2013-12-17 04:15:00
11:35 PM,48.7,30.7,50,30.17,10.0,West,5.8,-,N/A,,Clear,270,2013-12-17 04:35:00
11:55 PM,47.8,30.9,52,30.17,10.0,West,5.8,-,N/A,,Clear,260,2013-12-17 04:55:00